| time (UTC) | temp C | wind direction | speed KPH | gust KPH | rain 1hr cm | rain 24hr cm | rain mn cm | humidity % | barometer mb |
| 20260507070004 | -17 | 0.0 | 0.0 | 0.00 | 0.00 | 0.00 | 1014.6 | ||
| 20260507064600 | 21 | 132 | 0.0 | 6.4 | 0.00 | 0.00 | 0.00 | 83 | 1014.7 |
| 20260507063059 | 22 | 105 | 3.2 | 6.4 | 0.00 | 0.00 | 0.00 | 83 | 1014.9 |
| 20260507061554 | 22 | 102 | 1.6 | 6.4 | 0.00 | 0.00 | 0.00 | 83 | 1015.0 |
| 20260507060052 | 22 | 145 | 1.6 | 8.0 | 0.00 | 0.00 | 0.00 | 83 | 1015.2 |
| 20260507054602 | 22 | 108 | 4.8 | 9.7 | 0.00 | 0.00 | 0.00 | 83 | 1015.3 |
| 20260507053048 | 22 | 125 | 3.2 | 11.3 | 0.00 | 0.00 | 0.00 | 83 | 1015.5 |
| 20260507051546 | 22 | 165 | 4.8 | 11.3 | 0.00 | 0.00 | 0.00 | 83 | 1015.5 |
| 20260507050044 | 22 | 102 | 1.6 | 8.0 | 0.00 | 0.00 | 0.00 | 83 | 1015.7 |
| 20260507044543 | 22 | 153 | 1.6 | 9.7 | 0.00 | 0.00 | 0.00 | 83 | 1015.8 |
| 20260507043041 | 22 | 96 | 3.2 | 11.3 | 0.00 | 0.00 | 0.00 | 83 | 1016.0 |
| 20260507041539 | 22 | 113 | 1.6 | 9.7 | 0.00 | 0.00 | 0.00 | 83 | 1015.9 |
| 20260507040043 | 22 | 150 | 1.6 | 12.9 | 0.00 | 0.00 | 0.00 | 83 | 1016.0 |
| 20260507034535 | 22 | 123 | 1.6 | 12.9 | 0.00 | 0.00 | 0.00 | 84 | 1016.2 |
| 20260507033036 | 22 | 109 | 4.8 | 9.7 | 0.00 | 0.00 | 0.00 | 84 | 1016.3 |
| 20260507031530 | 22 | 120 | 4.8 | 12.9 | 0.00 | 0.00 | 0.00 | 85 | 1016.4 |
| 20260507030030 | 22 | 139 | 4.8 | 11.3 | 0.00 | 0.00 | 0.00 | 84 | 1016.2 |
| 20260507024526 | 22 | 127 | 0.0 | 9.7 | 0.00 | 0.00 | 0.00 | 84 | 1016.2 |
| 20260507023028 | 22 | 117 | 8.0 | 14.5 | 0.00 | 0.00 | 0.00 | 84 | 1016.1 |
| 20260507021523 | 23 | 120 | 6.4 | 11.3 | 0.00 | 0.00 | 0.00 | 83 | 1016.2 |
| 20260507020025 | 23 | 70 | 6.4 | 11.3 | 0.00 | 0.00 | 0.00 | 82 | 1016.1 |
| 20260507014521 | 23 | 108 | 6.4 | 12.9 | 0.00 | 0.00 | 0.00 | 82 | 1016.0 |
| 20260507013028 | 23 | 106 | 6.4 | 16.1 | 0.00 | 0.00 | 0.00 | 83 | 1015.8 |
| 20260507011533 | 23 | 115 | 3.2 | 12.9 | 0.00 | 0.00 | 0.00 | 82 | 1015.7 |
| 20260507010019 | 23 | 107 | 3.2 | 12.9 | 0.00 | 0.00 | 0.00 | 82 | 1015.5 |
| 20260507004518 | 23 | 107 | 8.0 | 14.5 | 0.00 | 0.00 | 0.00 | 81 | 1015.3 |
| 20260507003019 | 24 | 95 | 6.4 | 12.9 | 0.00 | 0.00 | 0.00 | 78 | 1015.1 |
| 20260507001516 | 25 | 145 | 3.2 | 12.9 | 0.00 | 0.00 | 0.00 | 77 | 1014.9 |
| 20260507000016 | 25 | 125 | 6.4 | 11.3 | 0.00 | 0.00 | 0.00 | 77 | 1014.7 |
| 20260506234515 | 25 | 61 | 8.0 | 17.7 | 0.00 | 0.00 | 0.00 | 76 | 1014.5 |
| 20260506233015 | 25 | 148 | 6.4 | 19.3 | 0.00 | 0.00 | 0.00 | 75 | 1014.4 |
| 20260506231514 | 26 | 128 | 6.4 | 14.5 | 0.00 | 0.00 | 0.00 | 73 | 1014.1 |
| 20260506230013 | 26 | 188 | 6.4 | 14.5 | 0.00 | 0.00 | 0.00 | 71 | 1013.8 |
| 20260506224523 | 27 | 107 | 1.6 | 14.5 | 0.00 | 0.00 | 0.00 | 69 | 1013.5 |
| 20260506223012 | 27 | 70 | 4.8 | 14.5 | 0.00 | 0.00 | 0.00 | 65 | 1013.3 |
| 20260506221511 | 27 | 83 | 11.3 | 20.9 | 0.00 | 0.00 | 0.00 | 62 | 1013.1 |
| 20260506220010 | 27 | 70 | 8.0 | 12.9 | 0.00 | 0.00 | 0.00 | 60 | 1013.1 |
| 20260506214509 | 28 | 120 | 4.8 | 14.5 | 0.00 | 0.00 | 0.00 | 59 | 1013.0 |
| 20260506213013 | 28 | 157 | 4.8 | 17.7 | 0.00 | 0.00 | 0.00 | 58 | 1012.8 |
| 20260506211511 | 28 | 116 | 3.2 | 16.1 | 0.00 | 0.00 | 0.00 | 56 | 1012.5 |
| 20260506210007 | 28 | 131 | 6.4 | 19.3 | 0.00 | 0.00 | 0.00 | 56 | 1012.4 |
| 20260506204507 | 29 | 104 | 6.4 | 20.9 | 0.00 | 0.00 | 0.00 | 53 | 1012.2 |
| 20260506203005 | 29 | 128 | 3.2 | 12.9 | 0.00 | 0.00 | 0.00 | 52 | 1012.3 |
| 20260506201503 | 28 | 159 | 8.0 | 16.1 | 0.00 | 0.00 | 0.00 | 53 | 1012.5 |
| 20260506200001 | 29 | 125 | 8.0 | 17.7 | 0.00 | 0.00 | 0.00 | 53 | 1012.7 |
| 20260506194601 | 29 | 53 | 8.0 | 17.7 | 0.00 | 0.00 | 0.00 | 53 | 1012.7 |
| 20260506193058 | 29 | 101 | 4.8 | 16.1 | 0.00 | 0.00 | 0.00 | 52 | 1012.9 |
| 20260506191604 | 29 | 156 | 4.8 | 17.7 | 0.00 | 0.00 | 0.00 | 52 | 1013.1 |
| 20260506190057 | 29 | 110 | 6.4 | 17.7 | 0.00 | 0.00 | 0.00 | 52 | 1013.3 |
| 20260506184558 | 29 | 155 | 4.8 | 16.1 | 0.00 | 0.00 | 0.00 | 52 | 1013.5 |
| 20260506183049 | 29 | 112 | 3.2 | 11.3 | 0.00 | 0.00 | 0.00 | 51 | 1013.6 |
| 20260506181546 | 28 | 74 | 6.4 | 17.7 | 0.00 | 0.00 | 0.00 | 52 | 1013.9 |
| 20260506180046 | 28 | 77 | 6.4 | 14.5 | 0.00 | 0.00 | 0.00 | 51 | 1014.2 |
| 20260506174541 | 28 | 259 | 3.2 | 14.5 | 0.00 | 0.00 | 0.00 | 51 | 1014.5 |
| 20260506173050 | 28 | 212 | 4.8 | 17.7 | 0.00 | 0.00 | 0.00 | 52 | 1014.9 |
| 20260506171538 | 28 | 131 | 3.2 | 20.9 | 0.00 | 0.00 | 0.00 | 52 | 1014.9 |
| 20260506170035 | 28 | 98 | 6.4 | 19.3 | 0.00 | 0.00 | 0.00 | 53 | 1015.3 |
| 20260506164531 | 27 | 108 | 8.0 | 16.1 | 0.00 | 0.00 | 0.00 | 54 | 1015.5 |
| 20260506163053 | 28 | 126 | 8.0 | 14.5 | 0.00 | 0.00 | 0.00 | 53 | 1016.0 |
| 20260506161528 | 27 | 39 | 3.2 | 19.3 | 0.00 | 0.00 | 0.00 | 58 | 1016.3 |
| 20260506160026 | 27 | 93 | 8.0 | 20.9 | 0.00 | 0.00 | 0.00 | 59 | 1016.4 |
| 20260506154531 | 27 | 56 | 4.8 | 16.1 | 0.00 | 0.00 | 0.00 | 59 | 1016.6 |
| 20260506153027 | 27 | 128 | 8.0 | 19.3 | 0.00 | 0.00 | 0.00 | 58 | 1016.8 |
| 20260506151524 | 26 | 194 | 8.0 | 17.7 | 0.00 | 0.00 | 0.00 | 59 | 1016.8 |
| 20260506150021 | 27 | 110 | 6.4 | 16.1 | 0.00 | 0.00 | 0.00 | 59 | 1016.9 |
| 20260506144518 | 26 | 89 | 4.8 | 16.1 | 0.00 | 0.00 | 0.00 | 63 | 1017.0 |
| 20260506143016 | 26 | 105 | 6.4 | 16.1 | 0.00 | 0.00 | 0.00 | 65 | 1017.1 |
| 20260506141513 | 25 | 139 | 9.7 | 22.5 | 0.00 | 0.00 | 0.00 | 68 | 1017.2 |
| 20260506140019 | 25 | 143 | 3.2 | 17.7 | 0.00 | 0.00 | 0.00 | 69 | 1017.5 |
| 20260506134510 | 25 | 133 | 6.4 | 16.1 | 0.00 | 0.00 | 0.00 | 72 | 1017.5 |
| 20260506133006 | 24 | 61 | 8.0 | 17.7 | 0.00 | 0.00 | 0.00 | 73 | 1017.3 |
| 20260506131505 | 23 | 123 | 8.0 | 16.1 | 0.00 | 0.00 | 0.00 | 74 | 1017.4 |
| 20260506130005 | 23 | 89 | 8.0 | 17.7 | 0.00 | 0.00 | 0.00 | 73 | 1017.4 |
| 20260506124503 | 23 | 156 | 3.2 | 17.7 | 0.00 | 0.00 | 0.00 | 75 | 1017.2 |
| 20260506123002 | 23 | 75 | 8.0 | 14.5 | 0.00 | 0.00 | 0.00 | 75 | 1016.9 |
| 20260506121613 | 23 | 104 | 1.6 | 12.9 | 0.00 | 0.00 | 0.00 | 74 | 1016.7 |
| 20260506120056 | 23 | 107 | 3.2 | 11.3 | 0.00 | 0.00 | 0.00 | 76 | 1016.6 |
| 20260506114554 | 23 | 68 | 3.2 | 6.4 | 0.00 | 0.00 | 0.00 | 74 | 1016.5 |
| 20260506113051 | 22 | 101 | 3.2 | 8.0 | 0.00 | 0.00 | 0.00 | 76 | 1016.2 |
| 20260506111548 | 22 | 55 | 4.8 | 6.4 | 0.00 | 0.00 | 0.00 | 78 | 1016.1 |
| 20260506110046 | 21 | 5 | 0.0 | 6.4 | 0.00 | 0.00 | 0.00 | 79 | 1015.9 |
| 20260506104547 | -17 | 0.0 | 0.0 | 0.00 | 0.00 | 0.00 | 1015.8 | ||
| 20260506103040 | -17 | 0.0 | 0.0 | 0.00 | 0.00 | 0.00 | 1015.6 | ||
| 20260506101536 | -17 | 0.0 | 0.0 | 0.00 | 0.00 | 0.00 | 1015.4 | ||
| 20260506100034 | -17 | 0.0 | 0.0 | 0.00 | 0.00 | 0.00 | 1015.5 | ||
| 20260506094526 | -17 | 0.0 | 0.0 | 0.00 | 0.00 | 0.00 | 1015.4 | ||
| 20260506093023 | -17 | 0.0 | 0.0 | 0.00 | 0.00 | 0.00 | 1015.2 | ||
| 20260506091518 | -17 | 0.0 | 0.0 | 0.00 | 0.00 | 0.00 | 1015.2 | ||
| 20260506090014 | -17 | 0.0 | 0.0 | 0.00 | 0.00 | 0.00 | 1015.2 | ||
| 20260506084510 | -17 | 0.0 | 0.0 | 0.00 | 0.00 | 0.00 | 1015.0 | ||
| 20260506083014 | -17 | 0.0 | 0.0 | 0.00 | 0.00 | 0.00 | 1015.0 | ||
| 20260506081616 | -17 | 0.0 | 0.0 | 0.00 | 0.00 | 0.00 | 1014.8 | ||
| 20260506073048 | -17 | 0.0 | 0.0 | 0.00 | 0.00 | 0.00 | 1014.9 | ||
| 20260506071543 | -17 | 0.0 | 0.0 | 0.00 | 0.00 | 0.00 | 1014.9 |